Content
SEND FEEDBACK

Daily
Averages
Monthly
Summary
United States of America

SUNDANCE, WYOMING


Home > North America > United States > Wyoming
Elevation: 4908 feet     Latitude: 44 24N     Longitude: 104 21W

WEATHER
 
SELECT A DAY
Number of Records: 237,854;   Date Range: 1/2/95 - 12/17/14
 
SHARE

PRINT THIS DATA

[ ← Previous Day ]
WEATHER ALMANAC - APRIL 27, 2013
[ Next Day → ]
[ °C ]   °F
Weather ElementAverageHighLow
Temperature59.3 °F73.4 °F (3:55 pm)42.8 °F (12:35 am)
Dewpoint28.4 °F35.6 °F (7:35 pm)23 °F (6:15 am)
Humidity32.9 %53 % (12:35 am)18 % (3:55 pm)
Barometer29.99 in30.11 in (12:35 am)29.87 in (11:55 pm)
Wind Speed8.8 mph19.6 mph (4:15 pm)
Wind Gust31.1 mph (3:55 pm)
Weather ElementAverage
Visibility10 mi
Wind DirectionSSW (196.8 °)

Weather ElementTotal
Precipitation---
Heating Degree Days6.9 (Base 65)
Growing Degree Days8.1 (Base 50)
Averaged from 68 records on April 27, 2013
WEATHER CONDITIONS BREAKOUT
WIND DIRECTION BREAKOUT
WEATHER BY HOUR - APRIL 27, 2013
[ °C ]   °F
Local TimeTemperatureDewpointHumidityBarometerVisibilityWind DirectionWind SpeedGust SpeedPrecipitationEventsConditions
12:35 AM42.8 °F26.6 °F53 %30.11 in10.0 miWest (280°)3.5 mphClear
12:55 AM48.2 °F26.6 °F43 %30.11 in10.0 miCalmClear
1:15 AM44.6 °F26.6 °F49 %30.11 in10.0 miCalmClear
1:35 AM46.4 °F24.8 °F43 %30.10 in10.0 miCalmClear
1:55 AM46.4 °F26.6 °F46 %30.10 in10.0 miCalmClear
2:15 AM44.6 °F26.6 °F49 %30.09 in10.0 miWest (280°)3.5 mphClear
2:35 AM42.8 °F26.6 °F53 %30.08 in10.0 miCalmClear
2:55 AM44.6 °F26.6 °F49 %30.07 in10.0 miCalmClear
3:15 AM44.6 °F26.6 °F49 %30.06 in10.0 miCalmClear
3:35 AM44.6 °F26.6 °F49 %30.06 in10.0 miCalmClear
3:55 AM44.6 °F26.6 °F49 %30.06 in10.0 miCalmClear
4:15 AM44.6 °F26.6 °F49 %30.05 in10.0 miWNW (290°)5.8 mphClear
4:35 AM42.8 °F26.6 °F53 %30.05 in10.0 miCalmClear
4:55 AM46.4 °F24.8 °F43 %30.05 in10.0 miCalmClear
6:15 AM48.2 °F23.0 °F37 %30.04 in10.0 miCalmClear
6:35 AM48.2 °F23.0 °F37 %30.04 in10.0 miWest (260°)3.5 mphClear
6:55 AM48.2 °F23.0 °F37 %30.04 in10.0 miCalmClear
7:15 AM48.2 °F24.8 °F40 %30.05 in10.0 miCalmClear
7:35 AM50.0 °F24.8 °F37 %30.05 in10.0 miCalmClear
7:55 AM53.6 °F26.6 °F35 %30.05 in10.0 miWest (260°)9.2 mphClear
8:15 AM55.4 °F26.6 °F33 %30.05 in10.0 miWest (270°)10.4 mphClear
8:35 AM57.2 °F28.4 °F33 %30.05 in10.0 miWest (270°)9.2 mphClear
8:55 AM59.0 °F26.6 °F29 %30.06 in10.0 miWest (260°)8.1 mphClear
9:15 AM62.6 °F26.6 °F26 %30.06 in10.0 miWest (280°)8.1 mphClear
9:35 AM64.4 °F26.6 °F24 %30.06 in10.0 miWNW (290°)16.1 mph20.7 mphClear
9:55 AM64.4 °F28.4 °F26 %30.07 in10.0 miWNW (300°)15.0 mph19.6 mphClear
10:15 AM64.4 °F30.2 °F28 %30.06 in10.0 miWNW (290°)13.8 mph20.7 mphClear
10:35 AM66.2 °F32.0 °F28 %30.06 in10.0 miWest (280°)18.4 mph21.9 mphClear
10:55 AM66.2 °F32.0 °F28 %30.06 in10.0 miNW (320°)18.4 mphClear
11:15 AM66.2 °F32.0 °F28 %30.06 in10.0 miWNW (300°)13.8 mphClear
11:35 AM68.0 °F32.0 °F26 %30.06 in10.0 miNW (320°)17.3 mph24.2 mphClear
11:55 AM68.0 °F30.2 °F24 %30.05 in10.0 miWest (280°)15.0 mph23.0 mphClear
12:15 PM68.0 °F30.2 °F24 %30.05 in10.0 miNW (310°)13.8 mph20.7 mphClear
12:35 PM68.0 °F30.2 °F24 %30.04 in10.0 miWest (280°)18.4 mph26.5 mphClear
12:55 PM68.0 °F32.0 °F26 %30.03 in10.0 miWest (280°)17.3 mph26.5 mphClear
1:15 PM68.0 °F30.2 °F24 %30.02 in10.0 miWNW (300°)13.8 mph21.9 mphClear
1:35 PM66.2 °F26.6 °F23 %30.01 in10.0 miWest (280°)16.1 mph23.0 mphClear
1:55 PM68.0 °F28.4 °F23 %30.01 in10.0 miWNW (290°)12.7 mph19.6 mphClear
2:15 PM69.8 °F28.4 °F21 %30.00 in10.0 miWNW (290°)15.0 mph23.0 mphClear
2:35 PM71.6 °F28.4 °F20 %29.99 in10.0 miWNW (300°)15.0 mph19.6 mphClear
2:55 PM71.6 °F26.6 °F19 %29.98 in10.0 miWest (280°)18.4 mph25.3 mphClear
3:15 PM71.6 °F26.6 °F19 %29.97 in10.0 miWest (280°)18.4 mph24.2 mphClear
3:35 PM71.6 °F26.6 °F19 %29.96 in10.0 miNW (310°)13.8 mph21.9 mphClear
3:55 PM73.4 °F26.6 °F18 %29.96 in10.0 miWest (280°)16.1 mph31.1 mphClear
4:15 PM73.4 °F28.4 °F19 %29.95 in10.0 miWSW (250°)19.6 mph25.3 mphClear
4:35 PM73.4 °F26.6 °F18 %29.94 in10.0 miWest (280°)17.3 mph24.2 mphClear
4:55 PM73.4 °F28.4 °F19 %29.93 in10.0 miWest (260°)16.1 mph24.2 mphClear
5:15 PM73.4 °F26.6 °F18 %29.92 in10.0 miWest (270°)13.8 mphClear
5:35 PM73.4 °F28.4 °F19 %29.91 in10.0 miWSW (250°)19.6 mph25.3 mphClear
5:55 PM73.4 °F28.4 °F19 %29.91 in10.0 miWest (260°)16.1 mph24.2 mphClear
6:15 PM71.6 °F28.4 °F20 %29.91 in10.0 miWest (260°)16.1 mph21.9 mphClear
6:35 PM71.6 °F28.4 °F20 %29.90 in10.0 miWest (280°)10.4 mphClear
6:55 PM69.8 °F30.2 °F23 %29.90 in10.0 miWest (260°)6.9 mphClear
7:15 PM68.0 °F30.2 °F24 %29.90 in10.0 miWSW (240°)4.6 mphClear
7:35 PM66.2 °F35.6 °F32 %29.89 in10.0 miSSW (200°)4.6 mphClear
7:55 PM59.0 °F35.6 °F42 %29.89 in10.0 miSSW (200°)10.4 mphClear
8:15 PM59.0 °F33.8 °F39 %29.89 in10.0 miSSW (200°)11.5 mphClear
8:35 PM57.2 °F33.8 °F41 %29.88 in10.0 miSSW (200°)11.5 mphClear
8:55 PM55.4 °F32.0 °F41 %29.88 in10.0 miSW (220°)9.2 mphClear
9:15 PM57.2 °F30.2 °F36 %29.88 in10.0 miWSW (240°)8.1 mphClear
9:35 PM55.4 °F32.0 °F41 %29.89 in10.0 miSSW (210°)6.9 mphClear
9:55 PM53.6 °F32.0 °F44 %29.89 in10.0 miWSW (250°)3.5 mphClear
10:15 PM55.4 °F30.2 °F38 %29.89 in10.0 miCalmClear
10:35 PM53.6 °F28.4 °F38 %29.89 in10.0 miSW (220°)5.8 mphClear
10:55 PM55.4 °F28.4 °F36 %29.89 in10.0 miWSW (250°)3.5 mphClear
11:15 PM53.6 °F28.4 °F38 %29.88 in10.0 miWest (270°)3.5 mphClear
11:35 PM53.6 °F28.4 °F38 %29.88 in10.0 miCalmClear
11:55 PM51.8 °F30.2 °F44 %29.87 in10.0 miCalmClear
Hourly data recorded from KSPF, located miles away from Sundance, Wyoming







STORIES FROM OUR PARTNERS